Regional Weather Roundup
Issued by NWS

Home | Current Version | Previous Version | Graphics & Text | Print | Product List | Glossary On
Versions: 1 2 3 4 5 6 7 8 9 10 11 12 13 14 15 16 17 18 19 20 21 22 23 24 25 26 27 28 29 30 31 32 33 34 35 36 37 38 39 40 41 42 43 44 45 46 47 48 49 50
000
ASUS43 KMKX 171020
RWRWI

WISCONSIN REGIONAL WEATHER ROUNDUP
NATIONAL WEATHER SERVICE MILWAUKEE/SULLIVAN WI
400 AM CST SUN DEC 17 2017

NOTE: "FAIR" INDICATES FEW OR NO CLOUDS BELOW 12,000 FEET WITH NO
SIGNIFICANT WEATHER AND/OR OBSTRUCTIONS TO VISIBILITY.

WIZ001-002-006>008-014>016-023>028-171100-
NORTHWEST WISCONSIN

CITY           SKY/WX    TMP DP  RH WIND       PRES   REMARKS
SUPERIOR ARPT  CLOUDY    21  17  83 CALM      30.13F
ASHLAND        CLOUDY    21  16  81 S3        30.14S
HAYWARD        FOG       21  20  96 CALM      30.12S VSB 3/4
SIREN          CLOUDY    18  17  95 CALM      30.12F
CUMBERLAND     CLOUDY    21  21 100 NE3       30.09F FOG
RICE LAKE      CLOUDY    23  22  93 CALM      30.11F
CHETEK         CLOUDY    23  21  92 E3        30.10F
LADYSMITH      CLOUDY    24  22  91 E3        30.12F
EAU CLAIRE     CLOUDY    25  22  88 E5        30.10F WCI  19
MENOMONIE      CLOUDY    26  24  92 E6        30.11F WCI  19
NEW RICHMOND   CLOUDY    23  21  93 CALM      30.11S FOG
OSCEOLA        CLOUDY    21  19  91 CALM      30.14F
$$

WIZ003>005-009-010-017-018-171100-
NORTH CENTRAL WISCONSIN

CITY           SKY/WX    TMP DP  RH WIND       PRES   REMARKS
MANITOWISH WTR CLOUDY    20  20 100 S5        30.11R WCI  13
ARBOR VITAE    CLOUDY    22  20  93 S6        30.11R FOG     WCI  14
WOODRUFF       CLOUDY    22  20  93 S6        30.11R FOG     WCI  14
RHINELANDER    CLOUDY    21  20  96 SE7       30.11R FOG     WCI  12
EAGLE RIVER    CLOUDY    19  19 100 SE5       30.11R WCI  12
LAND O LAKES   CLOUDY    19  17  95 SE7       30.12R WCI   9
PHILLIPS       CLOUDY    21  21 100 CALM      30.11R
TOMAHAWK       CLOUDY    21  19  93 CALM      30.12S
MEDFORD        CLOUDY    22  19  91 E7        30.08F WCI  13
MERRILL        CLOUDY    22  21  96 CALM      30.12S
$$

WIZ029-030-035-036-043>047-171100-
CENTRAL WISCONSIN

CITY           SKY/WX    TMP DP  RH WIND       PRES   REMARKS
WAUSAU         CLOUDY    22  19  89 E6        30.10F WCI  14
MOSINEE        CLOUDY    21  21 100 E7        30.12F WCI  13
MARSHFIELD     CLOUDY    23  20  88 E9        30.09S WCI  13
STEVENS POINT  CLOUDY    21  20  96 E6        30.13S WCI  14
WAUPACA        CLOUDY    26  22  83 CALM      30.16R
WAUTOMA        CLOUDY    25  22  88 NE7       30.14R WCI  17
WISC RAPIDS    CLOUDY    24  19  81 E7        30.13R WCI  16
CAMP DOUGLAS   CLOUDY   N/A N/A N/A E3        30.11S
$$

WIZ011>013-019>022-031-037>040-048>050-171100-
NORTHEAST WISCONSIN

CITY           SKY/WX    TMP DP  RH WIND       PRES   REMARKS
ANTIGO         CLOUDY    20  20  99 E6        30.11S WCI  13
SHAWANO        CLOUDY    23  20  88 N3        30.17R
OCONTO         CLOUDY    22  19  89 N3        30.17R
STURGEON BAY   CLOUDY    28  24  85 E5        30.17S WCI  23
GREEN BAY      CLOUDY    27  22  81 N6        30.15R WCI  20
MANITOWOC      CLOUDY    30  27  88 E9        30.15R WCI  22
APPLETON       CLOUDY    27  21  80 N6        30.13R WCI  20
CLINTONVILLE   CLOUDY    23  19  86 N6        30.16R WCI  16
OSHKOSH        CLOUDY    29  25  85 NE5       30.12S WCI  24
$$

WIZ032>034-041-042-053>061-171100-
SOUTHWEST WISCONSIN

CITY           SKY/WX    TMP DP  RH WIND       PRES   REMARKS
LA CROSSE      CLOUDY    30  26  85 CALM      30.10S
SPARTA         CLOUDY    27  24  87 E3        30.11S
VIROQUA        CLOUDY    27  27 100 CALM      30.06S
BOSCOBEL       CLOUDY    32  27  81 E7        30.09F WCI  26
PRAIRIE DU CHI CLOUDY    32  28  84 E3        30.08R
PLATTEVILLE    CLOUDY    31  31 100 E8        30.06S WCI  24
$$

WIZ056-057-062-063-064-067-068-171100-
SOUTH CENTRAL WISCONSIN

CITY           SKY/WX    TMP DP  RH WIND       PRES   REMARKS
REEDSBURG      CLOUDY    27  26  96 NE6       30.09S WCI  20
BARABOO/DELLS  CLOUDY    27  24  88 NE6       30.08F WCI  20
LONE ROCK      CLOUDY    32  29  88 E7        30.09F FOG     WCI  26
MINERAL POINT  CLOUDY    32  32 100 E6        30.05R FOG     WCI  26
MADISON        CLOUDY    32  29  88 E6        30.08F WCI  26
MIDDLETON      CLOUDY    32  31  94 E6        30.08F WCI  26
WATERTOWN      CLOUDY    32  32  99 E7        30.09S WCI  25
MONROE         CLOUDY    32  32 100 E9        30.04F FOG     WCI  24
JANESVILLE     CLOUDY    34  34 100 E9        30.07F FOG     WCI  26
$$

WIZ051-052-058>065-066-070>072-171100-
SOUTHEAST WISCONSIN

CITY           SKY/WX    TMP DP  RH WIND       PRES   REMARKS
MILWAUKEE      CLOUDY    35  31  85 NE9       30.10S WCI  28
WAUKESHA       CLOUDY    30  28  93 E7        30.10S WCI  23
MILWAUKEE/TIMM CLOUDY    32  28  86 NE5       30.11S WCI  27
RACINE         CLOUDY    35  31  85 NE7       30.11R WCI  29
BURLINGTON     CLOUDY    50  50 100 E7        30.09F
KENOSHA        CLOUDY    35  31  85 NE13      30.09R WCI  26
FOND DU LAC    CLOUDY    30  25  81 NE6       30.11F WCI  24
SHEBOYGAN      CLOUDY    31  28  89 E8        30.12S WCI  23
WEST BEND      CLOUDY    32  30  93 E7        30.10F WCI  26
JUNEAU         CLOUDY    30  28  90 E10       30.10F WCI  21
$$

LSZ147-162-171100-
LAKE SUPERIOR

STATION/POSITION TIME  TEMP    WIND        PRES    WAVE
                       AIR SEA DIR/SP/G            HT/PER
                 (UTC) (F)     (DEG/KT/KT) (MB)    (FT/S)
DEVILS ISLAND    1000   26     220/  8/ 11 1020.9F
SAXON HARBOR     0940   23                 1020.0F
$$

LMZ867-665-643>646-171100-
LAKE MICHIGAN

STATION/POSITION TIME  TEMP    WIND        PRES    WAVE
                       AIR SEA DIR/SP/G            HT/PER
                 (UTC) (F)     (DEG/KT/KT) (MB)    (FT/S)
NORTHPORT PIER   0940   28      70/ 14/ 16 1022.0S
KEWAUNEE LAKESHO 0954   31      80/  9/ 13 1019.8F
SHEBOYGAN LAKESH 1000   32      90/ 11/ 11 1020.9R
PORT WASHINGTON  0940   34     100/ 10/ 12 1020.7S
MILWAUKEE LAKESH 1000   34      60/  9/ 11   N/A
KENOSHA   LAKESH 1000   35      70/ 10/ 13 1019.3
$$

TC  - TEMPERATURE IN CELSIUS
VSB - VISIBILITY IN STATUTE MILES
WCI - WIND CHILL INDEX
HX  - HEAT INDEX





USA.gov is the U.S. government's official web portal to all federal, state and local government web resources and services.